Year,Month,Day,Hour,Minute,Value (Times are PST for temperature in C)
2015,07,01,00,00,20.10
2015,07,01,00,01,20.10
2015,07,01,00,02,20.10
2015,07,01,00,03,20.10
2015,07,01,00,04,20.10
2015,07,01,00,05,20.10
2015,07,01,00,06,20.10
2015,07,01,00,07,20.10
2015,07,01,00,08,20.10
2015,07,01,00,09,20.10
2015,07,01,00,10,20.10
2015,07,01,00,11,20.10
2015,07,01,00,12,20.20
2015,07,01,00,13,20.20
2015,07,01,00,14,20.20
2015,07,01,00,15,20.20
2015,07,01,00,16,20.20
2015,07,01,00,17,20.20
2015,07,01,00,18,20.20
2015,07,01,00,19,20.30
2015,07,01,00,20,20.30
2015,07,01,00,21,20.30
2015,07,01,00,22,20.40
2015,07,01,00,23,20.40
2015,07,01,00,24,20.40
2015,07,01,00,25,20.50
2015,07,01,00,26,20.60
2015,07,01,00,27,20.70
2015,07,01,00,28,20.70
2015,07,01,00,29,20.90
2015,07,01,00,30,20.90
2015,07,01,00,31,21.00
2015,07,01,00,32,21.00
2015,07,01,00,33,21.10
2015,07,01,00,34,21.10
2015,07,01,00,35,21.10
2015,07,01,00,36,21.10
2015,07,01,00,37,21.10
2015,07,01,00,38,21.20
2015,07,01,00,39,21.10
2015,07,01,00,40,21.10
2015,07,01,00,41,21.10
2015,07,01,00,42,21.10
2015,07,01,00,43,21.10
2015,07,01,00,44,21.10
2015,07,01,00,45,21.10
2015,07,01,00,46,21.00
2015,07,01,00,47,21.00
2015,07,01,00,48,21.00
2015,07,01,00,49,21.00
2015,07,01,00,50,20.90
2015,07,01,00,51,20.90
2015,07,01,00,52,20.90
2015,07,01,00,53,20.90
2015,07,01,00,54,20.90
2015,07,01,00,55,20.90
2015,07,01,00,56,20.80
2015,07,01,00,57,20.80
2015,07,01,00,58,20.80
2015,07,01,00,59,20.80
2015,07,01,01,00,20.80
2015,07,01,01,01,20.70
2015,07,01,01,02,20.70
2015,07,01,01,03,20.70
2015,07,01,01,04,20.70
2015,07,01,01,05,20.70
2015,07,01,01,06,20.60
2015,07,01,01,07,20.60
2015,07,01,01,08,20.60
2015,07,01,01,09,20.60
2015,07,01,01,10,20.50
2015,07,01,01,11,20.50
2015,07,01,01,12,20.50
2015,07,01,01,13,20.40
2015,07,01,01,14,20.40
2015,07,01,01,15,20.30
2015,07,01,01,16,20.30
2015,07,01,01,17,20.30
2015,07,01,01,18,20.30
2015,07,01,01,19,20.20
2015,07,01,01,20,20.20
2015,07,01,01,21,20.20
2015,07,01,01,22,20.10
2015,07,01,01,23,20.10
2015,07,01,01,24,20.10
2015,07,01,01,25,20.10
2015,07,01,01,26,20.10
2015,07,01,01,27,20.10
2015,07,01,01,28,20.10
2015,07,01,01,29,20.10
2015,07,01,01,30,20.10
2015,07,01,01,31,20.10
2015,07,01,01,32,20.10
2015,07,01,01,33,20.00
2015,07,01,01,34,20.00
2015,07,01,01,35,20.00
2015,07,01,01,36,20.00
2015,07,01,01,37,20.00
2015,07,01,01,38,19.90
2015,07,01,01,39,19.90
2015,07,01,01,40,19.90
2015,07,01,01,41,19.90
2015,07,01,01,42,19.90
2015,07,01,01,43,19.90
2015,07,01,01,44,19.90
2015,07,01,01,45,19.80
2015,07,01,01,46,19.80
2015,07,01,01,47,19.80
2015,07,01,01,48,19.80
2015,07,01,01,49,19.80
2015,07,01,01,50,19.80
2015,07,01,01,51,19.80
2015,07,01,01,52,19.80
2015,07,01,01,53,19.70
2015,07,01,01,54,19.70
2015,07,01,01,55,19.70
2015,07,01,01,56,19.70
2015,07,01,01,57,19.70
2015,07,01,01,58,19.60
2015,07,01,01,59,19.60
2015,07,01,02,00,19.60
2015,07,01,02,01,19.60
2015,07,01,02,02,19.60
2015,07,01,02,03,19.60
2015,07,01,02,04,19.60
2015,07,01,02,05,19.50
2015,07,01,02,06,19.50
2015,07,01,02,07,19.50
2015,07,01,02,08,19.50
2015,07,01,02,09,19.50
2015,07,01,02,10,19.50
2015,07,01,02,11,19.50
2015,07,01,02,12,19.40
2015,07,01,02,13,19.40
2015,07,01,02,14,19.40
2015,07,01,02,15,19.40
2015,07,01,02,16,19.40
2015,07,01,02,17,19.40
2015,07,01,02,18,19.40
2015,07,01,02,19,19.40
2015,07,01,02,20,19.40
2015,07,01,02,21,19.40
2015,07,01,02,22,19.30
2015,07,01,02,23,19.30
2015,07,01,02,24,19.30
2015,07,01,02,25,19.30
2015,07,01,02,26,19.30
2015,07,01,02,27,19.30
2015,07,01,02,28,19.20
2015,07,01,02,29,19.20
2015,07,01,02,30,19.20
2015,07,01,02,31,19.20
2015,07,01,02,32,19.20
2015,07,01,02,33,19.20
2015,07,01,02,34,19.20
2015,07,01,02,35,19.20
2015,07,01,02,36,19.20
2015,07,01,02,37,19.10
2015,07,01,02,38,19.10
2015,07,01,02,39,19.10
2015,07,01,02,40,19.10
2015,07,01,02,41,19.10
2015,07,01,02,42,19.10
2015,07,01,02,43,19.00
2015,07,01,02,44,18.90
2015,07,01,02,45,18.90
2015,07,01,02,46,18.80
2015,07,01,02,47,18.70
2015,07,01,02,48,18.70
2015,07,01,02,49,18.70
2015,07,01,02,50,18.70
2015,07,01,02,51,18.70
2015,07,01,02,52,18.70
2015,07,01,02,53,18.70
2015,07,01,02,54,18.70
2015,07,01,02,55,18.70
2015,07,01,02,56,18.60
2015,07,01,02,57,18.50
2015,07,01,02,58,18.50
2015,07,01,02,59,18.40
2015,07,01,03,00,18.40
2015,07,01,03,01,18.40
2015,07,01,03,02,18.50
2015,07,01,03,03,18.50
2015,07,01,03,04,18.60
2015,07,01,03,05,18.60
2015,07,01,03,06,18.60
2015,07,01,03,07,18.60
2015,07,01,03,08,18.60
2015,07,01,03,09,18.50
2015,07,01,03,10,18.40
2015,07,01,03,11,18.30
2015,07,01,03,12,18.10
2015,07,01,03,13,18.00
2015,07,01,03,14,17.90
2015,07,01,03,15,17.80
2015,07,01,03,16,17.60
2015,07,01,03,17,17.60
2015,07,01,03,18,17.50
2015,07,01,03,19,17.40
2015,07,01,03,20,17.30
2015,07,01,03,21,17.20
2015,07,01,03,22,17.10
2015,07,01,03,23,17.10
2015,07,01,03,24,17.00
2015,07,01,03,25,16.90
2015,07,01,03,26,16.90
2015,07,01,03,27,16.90
2015,07,01,03,28,16.90
2015,07,01,03,29,16.90
2015,07,01,03,30,16.80
2015,07,01,03,31,16.80
2015,07,01,03,32,16.80
2015,07,01,03,33,16.90
2015,07,01,03,34,17.00
2015,07,01,03,35,17.10
2015,07,01,03,36,17.20
2015,07,01,03,37,17.30
2015,07,01,03,38,17.40
2015,07,01,03,39,17.50
2015,07,01,03,40,17.60
2015,07,01,03,41,17.70
2015,07,01,03,42,17.70
2015,07,01,03,43,17.80
2015,07,01,03,44,17.80
2015,07,01,03,45,17.90
2015,07,01,03,46,17.90
2015,07,01,03,47,17.90
2015,07,01,03,48,17.90
2015,07,01,03,49,17.90
2015,07,01,03,50,17.80
2015,07,01,03,51,17.80
2015,07,01,03,52,17.70
2015,07,01,03,53,17.50
2015,07,01,03,54,17.40
2015,07,01,03,55,17.20
2015,07,01,03,56,17.00
2015,07,01,03,57,16.90
2015,07,01,03,58,16.80
2015,07,01,03,59,16.70
2015,07,01,04,00,16.60
2015,07,01,04,01,16.60
2015,07,01,04,02,16.70
2015,07,01,04,03,16.90
2015,07,01,04,04,17.20
2015,07,01,04,05,17.40
2015,07,01,04,06,17.60
2015,07,01,04,07,17.80
2015,07,01,04,08,17.90
2015,07,01,04,09,18.00
2015,07,01,04,10,18.10
2015,07,01,04,11,18.20
2015,07,01,04,12,18.30
2015,07,01,04,13,18.30
2015,07,01,04,14,18.30
2015,07,01,04,15,18.30
2015,07,01,04,16,18.40
2015,07,01,04,17,18.30
2015,07,01,04,18,18.30
2015,07,01,04,19,18.30
2015,07,01,04,20,18.30
2015,07,01,04,21,18.40
2015,07,01,04,22,18.40
2015,07,01,04,23,18.40
2015,07,01,04,24,18.40
2015,07,01,04,25,18.40
2015,07,01,04,26,18.40
2015,07,01,04,27,18.40
2015,07,01,04,28,18.40
2015,07,01,04,29,18.40
2015,07,01,04,30,18.40
2015,07,01,04,31,18.40
2015,07,01,04,32,18.40
2015,07,01,04,33,18.40
2015,07,01,04,34,18.40
2015,07,01,04,35,18.40
2015,07,01,04,36,18.40
2015,07,01,04,37,18.40
2015,07,01,04,38,18.40
2015,07,01,04,39,18.30
2015,07,01,04,40,18.30
2015,07,01,04,41,18.30
2015,07,01,04,42,18.30
2015,07,01,04,43,18.30
2015,07,01,04,44,18.30
2015,07,01,04,45,18.20
2015,07,01,04,46,18.20
2015,07,01,04,47,18.10
2015,07,01,04,48,18.00
2015,07,01,04,49,17.80
2015,07,01,04,50,17.60
2015,07,01,04,51,17.40
2015,07,01,04,52,17.30
2015,07,01,04,53,17.20
2015,07,01,04,54,17.20
2015,07,01,04,55,17.20
2015,07,01,04,56,17.20
2015,07,01,04,57,17.10
2015,07,01,04,58,17.10
2015,07,01,04,59,17.10
2015,07,01,05,00,17.10
2015,07,01,05,01,17.10
2015,07,01,05,02,17.20
2015,07,01,05,03,17.20
2015,07,01,05,04,17.30
2015,07,01,05,05,17.30
2015,07,01,05,06,17.30
2015,07,01,05,07,17.30
2015,07,01,05,08,17.30
2015,07,01,05,09,17.30
2015,07,01,05,10,17.30
2015,07,01,05,11,17.30
2015,07,01,05,12,17.30
2015,07,01,05,13,17.20
2015,07,01,05,14,17.10
2015,07,01,05,15,16.90
2015,07,01,05,16,16.70
2015,07,01,05,17,16.50
2015,07,01,05,18,16.30
2015,07,01,05,19,16.10
2015,07,01,05,20,16.00
2015,07,01,05,21,15.90
2015,07,01,05,22,15.80
2015,07,01,05,23,15.60
2015,07,01,05,24,15.50
2015,07,01,05,25,15.50
2015,07,01,05,26,15.40
2015,07,01,05,27,15.30
2015,07,01,05,28,15.20
2015,07,01,05,29,15.10
2015,07,01,05,30,15.10
2015,07,01,05,31,15.00
2015,07,01,05,32,15.00
2015,07,01,05,33,14.90
2015,07,01,05,34,14.90
2015,07,01,05,35,14.80
2015,07,01,05,36,14.80
2015,07,01,05,37,14.80
2015,07,01,05,38,14.80
2015,07,01,05,39,14.80
2015,07,01,05,40,14.70
2015,07,01,05,41,14.70
2015,07,01,05,42,14.70
2015,07,01,05,43,14.70
2015,07,01,05,44,14.70
2015,07,01,05,45,14.70
2015,07,01,05,46,14.80
2015,07,01,05,47,14.80
2015,07,01,05,48,14.90
2015,07,01,05,49,14.90
2015,07,01,05,50,14.90
2015,07,01,05,51,14.90
2015,07,01,05,52,14.90
2015,07,01,05,53,14.90
2015,07,01,05,54,14.90
2015,07,01,05,55,14.90
2015,07,01,05,56,14.90
2015,07,01,05,57,14.90
2015,07,01,05,58,14.90
2015,07,01,05,59,14.90
2015,07,01,06,00,14.80
2015,07,01,06,01,14.80
2015,07,01,06,02,14.80
2015,07,01,06,03,14.80
2015,07,01,06,04,14.70
2015,07,01,06,05,14.70
2015,07,01,06,06,14.70
2015,07,01,06,07,14.70
2015,07,01,06,08,14.80
2015,07,01,06,09,14.90
2015,07,01,06,10,14.90
2015,07,01,06,11,14.90
2015,07,01,06,12,14.90
2015,07,01,06,13,14.90
2015,07,01,06,14,14.90
2015,07,01,06,15,14.90
2015,07,01,06,16,14.80
2015,07,01,06,17,14.80
2015,07,01,06,18,14.80
2015,07,01,06,19,14.80
2015,07,01,06,20,14.80
2015,07,01,06,21,14.90
2015,07,01,06,22,14.90
2015,07,01,06,23,14.90
2015,07,01,06,24,14.90
2015,07,01,06,25,14.90
2015,07,01,06,26,15.00
2015,07,01,06,27,15.00
2015,07,01,06,28,15.00
2015,07,01,06,29,15.10
2015,07,01,06,30,15.10
2015,07,01,06,31,15.10
2015,07,01,06,32,15.10
2015,07,01,06,33,15.10
2015,07,01,06,34,15.10
2015,07,01,06,35,15.10
2015,07,01,06,36,15.10
2015,07,01,06,37,15.20
2015,07,01,06,38,15.20
2015,07,01,06,39,15.20
2015,07,01,06,40,15.20
2015,07,01,06,41,15.30
2015,07,01,06,42,15.30
2015,07,01,06,43,15.40
2015,07,01,06,44,15.50
2015,07,01,06,45,15.60
2015,07,01,06,46,15.70
2015,07,01,06,47,15.70
2015,07,01,06,48,15.80
2015,07,01,06,49,15.90
2015,07,01,06,50,15.90
2015,07,01,06,51,16.00
2015,07,01,06,52,16.10
2015,07,01,06,53,16.20
2015,07,01,06,54,16.30
2015,07,01,06,55,16.40
2015,07,01,06,56,16.40
2015,07,01,06,57,16.40
2015,07,01,06,58,16.50
2015,07,01,06,59,16.50
2015,07,01,07,00,16.60
2015,07,01,07,01,16.60
2015,07,01,07,02,16.60
2015,07,01,07,03,16.70
2015,07,01,07,04,16.80
2015,07,01,07,05,16.80
2015,07,01,07,06,16.90
2015,07,01,07,07,17.00
2015,07,01,07,08,17.10
2015,07,01,07,09,17.20
2015,07,01,07,10,17.20
2015,07,01,07,11,17.20
2015,07,01,07,12,17.30
2015,07,01,07,13,17.30
2015,07,01,07,14,17.30
2015,07,01,07,15,17.40
2015,07,01,07,16,17.40
2015,07,01,07,17,17.40
2015,07,01,07,18,17.40
2015,07,01,07,19,17.50
2015,07,01,07,20,17.50
2015,07,01,07,21,17.50
2015,07,01,07,22,17.60
2015,07,01,07,23,17.60
2015,07,01,07,24,17.60
2015,07,01,07,25,17.70
2015,07,01,07,26,17.70
2015,07,01,07,27,17.80
2015,07,01,07,28,17.80
2015,07,01,07,29,17.80
2015,07,01,07,30,17.90
2015,07,01,07,31,17.90
2015,07,01,07,32,17.90
2015,07,01,07,33,18.00
2015,07,01,07,34,18.00
2015,07,01,07,35,18.10
2015,07,01,07,36,18.10
2015,07,01,07,37,18.20
2015,07,01,07,38,18.20
2015,07,01,07,39,18.20
2015,07,01,07,40,18.30
2015,07,01,07,41,18.30
2015,07,01,07,42,18.40
2015,07,01,07,43,18.50
2015,07,01,07,44,18.50
2015,07,01,07,45,18.60
2015,07,01,07,46,18.60
2015,07,01,07,47,18.60
2015,07,01,07,48,18.70
2015,07,01,07,49,18.70
2015,07,01,07,50,18.70
2015,07,01,07,51,18.80
2015,07,01,07,52,18.80
2015,07,01,07,53,18.80
2015,07,01,07,54,18.90
2015,07,01,07,55,18.90
2015,07,01,07,56,19.00
2015,07,01,07,57,19.00
2015,07,01,07,58,19.10
2015,07,01,07,59,19.10
2015,07,01,08,00,19.20
2015,07,01,08,01,19.30
2015,07,01,08,02,19.30
2015,07,01,08,03,19.40
2015,07,01,08,04,19.40
2015,07,01,08,05,19.40
2015,07,01,08,06,19.50
2015,07,01,08,07,19.60
2015,07,01,08,08,19.60
2015,07,01,08,09,19.60
2015,07,01,08,10,19.70
2015,07,01,08,11,19.70
2015,07,01,08,12,19.80
2015,07,01,08,13,19.80
2015,07,01,08,14,19.90
2015,07,01,08,15,20.00
2015,07,01,08,16,20.10
2015,07,01,08,17,20.20
2015,07,01,08,18,20.30
2015,07,01,08,19,20.40
2015,07,01,08,20,20.50
2015,07,01,08,21,20.60
2015,07,01,08,22,20.70
2015,07,01,08,23,20.80
2015,07,01,08,24,20.90
2015,07,01,08,25,21.00
2015,07,01,08,26,21.10
2015,07,01,08,27,21.20
2015,07,01,08,28,21.30
2015,07,01,08,29,21.40
2015,07,01,08,30,21.50
2015,07,01,08,31,21.60
2015,07,01,08,32,21.60
2015,07,01,08,33,21.60
2015,07,01,08,34,21.60
2015,07,01,08,35,21.60
2015,07,01,08,36,21.60
2015,07,01,08,37,21.50
2015,07,01,08,38,21.60
2015,07,01,08,39,21.60
2015,07,01,08,40,21.60
2015,07,01,08,41,21.50
2015,07,01,08,42,21.50
2015,07,01,08,43,21.40
2015,07,01,08,44,21.40
2015,07,01,08,45,21.40
2015,07,01,08,46,21.50
2015,07,01,08,47,21.50
2015,07,01,08,48,21.60
2015,07,01,08,49,21.60
2015,07,01,08,50,21.60
2015,07,01,08,51,21.60
2015,07,01,08,52,21.60
2015,07,01,08,53,21.60
2015,07,01,08,54,21.60
2015,07,01,08,55,21.60
2015,07,01,08,56,21.60
2015,07,01,08,57,21.60
2015,07,01,08,58,21.60
2015,07,01,08,59,21.60
2015,07,01,09,00,21.60
2015,07,01,09,01,21.60
2015,07,01,09,02,21.60
2015,07,01,09,03,21.70
2015,07,01,09,04,21.70
2015,07,01,09,05,21.70
2015,07,01,09,06,21.70
2015,07,01,09,07,21.70
2015,07,01,09,08,21.70
2015,07,01,09,09,21.70
2015,07,01,09,10,21.70
2015,07,01,09,11,21.70
2015,07,01,09,12,21.80
2015,07,01,09,13,21.80
2015,07,01,09,14,21.80
2015,07,01,09,15,21.90
2015,07,01,09,16,21.90
2015,07,01,09,17,21.90
2015,07,01,09,18,21.90
2015,07,01,09,19,21.90
2015,07,01,09,20,21.90
2015,07,01,09,21,21.90
2015,07,01,09,22,21.90
2015,07,01,09,23,21.90
2015,07,01,09,24,21.90
2015,07,01,09,25,21.90
2015,07,01,09,26,22.00
2015,07,01,09,27,22.00
2015,07,01,09,28,22.10
2015,07,01,09,29,22.10
2015,07,01,09,30,22.20
2015,07,01,09,31,22.10
2015,07,01,09,32,22.10
2015,07,01,09,33,22.10
2015,07,01,09,34,22.20
2015,07,01,09,35,22.20
2015,07,01,09,36,22.20
2015,07,01,09,37,22.20
2015,07,01,09,38,22.30
2015,07,01,09,39,22.30
2015,07,01,09,40,22.40
2015,07,01,09,41,22.40
2015,07,01,09,42,22.50
2015,07,01,09,43,22.50
2015,07,01,09,44,22.40
2015,07,01,09,45,22.50
2015,07,01,09,46,22.50
2015,07,01,09,47,22.60
2015,07,01,09,48,22.60
2015,07,01,09,49,22.70
2015,07,01,09,50,22.80
2015,07,01,09,51,22.80
2015,07,01,09,52,22.80
2015,07,01,09,53,22.80
2015,07,01,09,54,22.80
2015,07,01,09,55,22.90
2015,07,01,09,56,22.90
2015,07,01,09,57,23.00
2015,07,01,09,58,23.00
2015,07,01,09,59,23.00
2015,07,01,10,00,23.10
2015,07,01,10,01,23.10
2015,07,01,10,02,23.20
2015,07,01,10,03,23.20
2015,07,01,10,04,23.20
2015,07,01,10,05,23.20
2015,07,01,10,06,23.30
2015,07,01,10,07,23.30
2015,07,01,10,08,23.40
2015,07,01,10,09,23.50
2015,07,01,10,10,23.50
2015,07,01,10,11,23.60
2015,07,01,10,12,23.70
2015,07,01,10,13,23.80
2015,07,01,10,14,23.90
2015,07,01,10,15,23.90
2015,07,01,10,16,23.90
2015,07,01,10,17,23.90
2015,07,01,10,18,24.00
2015,07,01,10,19,24.00
2015,07,01,10,20,24.00
2015,07,01,10,21,24.10
2015,07,01,10,22,24.10
2015,07,01,10,23,24.20
2015,07,01,10,24,24.20
2015,07,01,10,25,24.10
2015,07,01,10,26,24.10
2015,07,01,10,27,24.10
2015,07,01,10,28,24.10
2015,07,01,10,29,24.10
2015,07,01,10,30,24.10
2015,07,01,10,31,24.10
2015,07,01,10,32,24.10
2015,07,01,10,33,24.10
2015,07,01,10,34,24.20
2015,07,01,10,35,24.20
2015,07,01,10,36,24.30
2015,07,01,10,37,24.30
2015,07,01,10,38,24.30
2015,07,01,10,39,24.40
2015,07,01,10,40,24.50
2015,07,01,10,41,24.60
2015,07,01,10,42,24.60
2015,07,01,10,43,24.60
2015,07,01,10,44,24.60
2015,07,01,10,45,24.60
2015,07,01,10,46,24.60
2015,07,01,10,47,24.60
2015,07,01,10,48,24.60
2015,07,01,10,49,24.70
2015,07,01,10,50,24.70
2015,07,01,10,51,24.80
2015,07,01,10,52,24.80
2015,07,01,10,53,24.80
2015,07,01,10,54,24.90
2015,07,01,10,55,24.90
2015,07,01,10,56,25.00
2015,07,01,10,57,25.10
2015,07,01,10,58,25.20
2015,07,01,10,59,25.20
2015,07,01,11,00,25.20
2015,07,01,11,01,25.20
2015,07,01,11,02,25.20
2015,07,01,11,03,25.10
2015,07,01,11,04,25.20
2015,07,01,11,05,25.20
2015,07,01,11,06,25.10
2015,07,01,11,07,25.10
2015,07,01,11,08,25.10
2015,07,01,11,09,25.10
2015,07,01,11,10,25.10
2015,07,01,11,11,25.20
2015,07,01,11,12,25.20
2015,07,01,11,13,25.20
2015,07,01,11,14,25.30
2015,07,01,11,15,25.30
2015,07,01,11,16,25.30
2015,07,01,11,17,25.30
2015,07,01,11,18,25.30
2015,07,01,11,19,25.40
2015,07,01,11,20,25.40
2015,07,01,11,21,25.50
2015,07,01,11,22,25.50
2015,07,01,11,23,25.50
2015,07,01,11,24,25.60
2015,07,01,11,25,25.60
2015,07,01,11,26,25.60
2015,07,01,11,27,25.70
2015,07,01,11,28,25.70
2015,07,01,11,29,25.80
2015,07,01,11,30,25.80
2015,07,01,11,31,25.80
2015,07,01,11,32,26.00
2015,07,01,11,33,26.10
2015,07,01,11,34,26.30
2015,07,01,11,35,26.40
2015,07,01,11,36,26.50
2015,07,01,11,37,26.60
2015,07,01,11,38,26.70
2015,07,01,11,39,26.70
2015,07,01,11,40,26.70
2015,07,01,11,41,26.70
2015,07,01,11,42,26.70
2015,07,01,11,43,26.70
2015,07,01,11,44,26.70
2015,07,01,11,45,26.80
2015,07,01,11,46,26.80
2015,07,01,11,47,26.80
2015,07,01,11,48,26.80
2015,07,01,11,49,26.80
2015,07,01,11,50,26.80
2015,07,01,11,51,26.90
2015,07,01,11,52,26.90
2015,07,01,11,53,26.90
2015,07,01,11,54,26.90
2015,07,01,11,55,26.90
2015,07,01,11,56,26.90
2015,07,01,11,57,26.90
2015,07,01,11,58,26.90
2015,07,01,11,59,27.00
2015,07,01,12,00,27.10
2015,07,01,12,01,27.20
2015,07,01,12,02,27.20
2015,07,01,12,03,27.30
2015,07,01,12,04,27.30
2015,07,01,12,05,27.30
2015,07,01,12,06,27.30
2015,07,01,12,07,27.30
2015,07,01,12,08,27.30
2015,07,01,12,09,27.30
2015,07,01,12,10,27.30
2015,07,01,12,11,27.40
2015,07,01,12,12,27.50
2015,07,01,12,13,27.50
2015,07,01,12,14,27.50
2015,07,01,12,15,27.60
2015,07,01,12,16,27.60
2015,07,01,12,17,27.70
2015,07,01,12,18,27.80
2015,07,01,12,19,27.90
2015,07,01,12,20,27.90
2015,07,01,12,21,28.00
2015,07,01,12,22,28.10
2015,07,01,12,23,28.20
2015,07,01,12,24,28.20
2015,07,01,12,25,28.30
2015,07,01,12,26,28.40
2015,07,01,12,27,28.40
2015,07,01,12,28,28.50
2015,07,01,12,29,28.50
2015,07,01,12,30,28.60
2015,07,01,12,31,28.60
2015,07,01,12,32,28.60
2015,07,01,12,33,28.60
2015,07,01,12,34,28.70
2015,07,01,12,35,28.70
2015,07,01,12,36,28.70
2015,07,01,12,37,28.70
2015,07,01,12,38,28.70
2015,07,01,12,39,28.70
2015,07,01,12,40,28.70
2015,07,01,12,41,28.70
2015,07,01,12,42,28.70
2015,07,01,12,43,28.80
2015,07,01,12,44,29.00
2015,07,01,12,45,29.00
2015,07,01,12,46,29.00
2015,07,01,12,47,29.00
2015,07,01,12,48,28.90
2015,07,01,12,49,28.90
2015,07,01,12,50,29.00
2015,07,01,12,51,29.00
2015,07,01,12,52,29.10
2015,07,01,12,53,29.10
2015,07,01,12,54,29.10
2015,07,01,12,55,29.10
2015,07,01,12,56,29.10
2015,07,01,12,57,29.10
2015,07,01,12,58,29.00
2015,07,01,12,59,29.00
2015,07,01,13,00,29.00
2015,07,01,13,01,29.10
2015,07,01,13,02,29.10
2015,07,01,13,03,29.20
2015,07,01,13,04,29.30
2015,07,01,13,05,29.30
2015,07,01,13,06,29.30
2015,07,01,13,07,29.40
2015,07,01,13,08,29.40
2015,07,01,13,09,29.50
2015,07,01,13,10,29.50
2015,07,01,13,11,29.60
2015,07,01,13,12,29.60
2015,07,01,13,13,29.60
2015,07,01,13,14,29.60
2015,07,01,13,15,29.70
2015,07,01,13,16,29.70
2015,07,01,13,17,29.70
2015,07,01,13,18,29.70
2015,07,01,13,19,29.80
2015,07,01,13,20,29.80
2015,07,01,13,21,29.90
2015,07,01,13,22,29.90
2015,07,01,13,23,29.90
2015,07,01,13,24,29.90
2015,07,01,13,25,29.90
2015,07,01,13,26,29.90
2015,07,01,13,27,29.90
2015,07,01,13,28,29.90
2015,07,01,13,29,29.90
2015,07,01,13,30,29.90
2015,07,01,13,31,29.90
2015,07,01,13,32,29.90
2015,07,01,13,33,29.90
2015,07,01,13,34,29.90
2015,07,01,13,35,29.80
2015,07,01,13,36,29.80
2015,07,01,13,37,29.90
2015,07,01,13,38,29.90
2015,07,01,13,39,29.90
2015,07,01,13,40,29.80
2015,07,01,13,41,29.80
2015,07,01,13,42,29.80
2015,07,01,13,43,29.80
2015,07,01,13,44,29.90
2015,07,01,13,45,29.90
2015,07,01,13,46,29.90
2015,07,01,13,47,30.00
2015,07,01,13,48,30.10
2015,07,01,13,49,30.10
2015,07,01,13,50,30.10
2015,07,01,13,51,30.00
2015,07,01,13,52,30.00
2015,07,01,13,53,29.90
2015,07,01,13,54,29.90
2015,07,01,13,55,29.90
2015,07,01,13,56,29.90
2015,07,01,13,57,30.00
2015,07,01,13,58,30.10
2015,07,01,13,59,30.10
2015,07,01,14,00,30.20
2015,07,01,14,01,30.20
2015,07,01,14,02,30.30
2015,07,01,14,03,30.30
2015,07,01,14,04,30.30
2015,07,01,14,05,30.40
2015,07,01,14,06,30.40
2015,07,01,14,07,30.50
2015,07,01,14,08,30.50
2015,07,01,14,09,30.60
2015,07,01,14,10,30.50
2015,07,01,14,11,30.40
2015,07,01,14,12,30.40
2015,07,01,14,13,30.40
2015,07,01,14,14,30.40
2015,07,01,14,15,30.40
2015,07,01,14,16,30.50
2015,07,01,14,17,30.60
2015,07,01,14,18,30.70
2015,07,01,14,19,30.70
2015,07,01,14,20,30.70
2015,07,01,14,21,30.80
2015,07,01,14,22,30.80
2015,07,01,14,23,30.80
2015,07,01,14,24,30.80
2015,07,01,14,25,30.80
2015,07,01,14,26,30.80
2015,07,01,14,27,30.90
2015,07,01,14,28,30.90
2015,07,01,14,29,31.00
2015,07,01,14,30,31.10
2015,07,01,14,31,31.20
2015,07,01,14,32,31.30
2015,07,01,14,33,31.30
2015,07,01,14,34,31.30
2015,07,01,14,35,31.30
2015,07,01,14,36,31.40
2015,07,01,14,37,31.40
2015,07,01,14,38,31.40
2015,07,01,14,39,31.40
2015,07,01,14,40,31.40
2015,07,01,14,41,31.30
2015,07,01,14,42,31.30
2015,07,01,14,43,31.30
2015,07,01,14,44,31.30
2015,07,01,14,45,31.30
2015,07,01,14,46,31.40
2015,07,01,14,47,31.40
2015,07,01,14,48,31.40
2015,07,01,14,49,31.30
2015,07,01,14,50,31.30
2015,07,01,14,51,31.20
2015,07,01,14,52,31.20
2015,07,01,14,53,31.20
2015,07,01,14,54,31.20
2015,07,01,14,55,31.10
2015,07,01,14,56,31.10
2015,07,01,14,57,31.10
2015,07,01,14,58,31.10
2015,07,01,14,59,31.10
2015,07,01,15,00,31.10
2015,07,01,15,01,31.10
2015,07,01,15,02,31.10
2015,07,01,15,03,31.10
2015,07,01,15,04,31.20
2015,07,01,15,05,31.20
2015,07,01,15,06,31.20
2015,07,01,15,07,31.20
2015,07,01,15,08,31.20
2015,07,01,15,09,31.20
2015,07,01,15,10,31.20
2015,07,01,15,11,31.20
2015,07,01,15,12,31.20
2015,07,01,15,13,31.20
2015,07,01,15,14,31.20
2015,07,01,15,15,31.20
2015,07,01,15,16,31.20
2015,07,01,15,17,31.20
2015,07,01,15,18,31.40
2015,07,01,15,19,31.40
2015,07,01,15,20,31.40
2015,07,01,15,21,31.50
2015,07,01,15,22,31.50
2015,07,01,15,23,31.50
2015,07,01,15,24,31.50
2015,07,01,15,25,31.50
2015,07,01,15,26,31.50
2015,07,01,15,27,31.60
2015,07,01,15,28,31.60
2015,07,01,15,29,31.50
2015,07,01,15,30,31.50
2015,07,01,15,31,31.40
2015,07,01,15,32,31.40
2015,07,01,15,33,31.40
2015,07,01,15,34,31.40
2015,07,01,15,35,31.50
2015,07,01,15,36,31.60
2015,07,01,15,37,31.60
2015,07,01,15,38,31.60
2015,07,01,15,39,31.70
2015,07,01,15,40,31.70
2015,07,01,15,41,31.70
2015,07,01,15,42,31.70
2015,07,01,15,43,31.70
2015,07,01,15,44,31.60
2015,07,01,15,45,31.70
2015,07,01,15,46,31.70
2015,07,01,15,47,31.70
2015,07,01,15,48,31.70
2015,07,01,15,49,31.80
2015,07,01,15,50,31.80
2015,07,01,15,51,31.80
2015,07,01,15,52,31.80
2015,07,01,15,53,31.70
2015,07,01,15,54,31.70
2015,07,01,15,55,31.60
2015,07,01,15,56,31.60
2015,07,01,15,57,31.60
2015,07,01,15,58,31.60
2015,07,01,15,59,31.60
2015,07,01,16,00,31.60
2015,07,01,16,01,31.60
2015,07,01,16,02,31.50
2015,07,01,16,03,31.50
2015,07,01,16,04,31.50
2015,07,01,16,05,31.60
2015,07,01,16,06,31.60
2015,07,01,16,07,31.60
2015,07,01,16,08,31.60
2015,07,01,16,09,31.70
2015,07,01,16,10,31.70
2015,07,01,16,11,31.80
2015,07,01,16,12,31.80
2015,07,01,16,13,31.80
2015,07,01,16,14,31.80
2015,07,01,16,15,31.80
2015,07,01,16,16,31.80
2015,07,01,16,17,31.80
2015,07,01,16,18,31.90
2015,07,01,16,19,31.90
2015,07,01,16,20,31.90
2015,07,01,16,21,31.80
2015,07,01,16,22,31.80
2015,07,01,16,23,31.80
2015,07,01,16,24,31.80
2015,07,01,16,25,31.80
2015,07,01,16,26,31.90
2015,07,01,16,27,31.90
2015,07,01,16,28,32.00
2015,07,01,16,29,32.00
2015,07,01,16,30,32.00
2015,07,01,16,31,31.90
2015,07,01,16,32,31.90
2015,07,01,16,33,31.90
2015,07,01,16,34,31.90
2015,07,01,16,35,31.90
2015,07,01,16,36,31.90
2015,07,01,16,37,31.90
2015,07,01,16,38,32.00
2015,07,01,16,39,32.00
2015,07,01,16,40,32.10
2015,07,01,16,41,32.10
2015,07,01,16,42,32.10
2015,07,01,16,43,32.10
2015,07,01,16,44,32.10
2015,07,01,16,45,32.10
2015,07,01,16,46,32.10
2015,07,01,16,47,32.10
2015,07,01,16,48,32.20
2015,07,01,16,49,32.20
2015,07,01,16,50,32.10
2015,07,01,16,51,32.10
2015,07,01,16,52,32.00
2015,07,01,16,53,32.00
2015,07,01,16,54,32.00
2015,07,01,16,55,32.00
2015,07,01,16,56,32.00
2015,07,01,16,57,32.00
2015,07,01,16,58,32.00
2015,07,01,16,59,32.00
2015,07,01,17,00,32.00
2015,07,01,17,01,32.00
2015,07,01,17,02,32.00
2015,07,01,17,03,32.10
2015,07,01,17,04,32.10
2015,07,01,17,05,32.10
2015,07,01,17,06,32.10
2015,07,01,17,07,32.20
2015,07,01,17,08,32.20
2015,07,01,17,09,32.10
2015,07,01,17,10,32.10
2015,07,01,17,11,32.10
2015,07,01,17,12,32.10
2015,07,01,17,13,32.10
2015,07,01,17,14,32.10
2015,07,01,17,15,32.10
2015,07,01,17,16,32.10
2015,07,01,17,17,32.10
2015,07,01,17,18,32.10
2015,07,01,17,19,32.10